IRIDIUM 73 [-] (25344 NORAD) Tracking and Keplerian Element Data

This shows tracking and keplerian element data for the satellite.

Feedback or suggestion? Click here.




ElementValue
Catalog25344
NameIRIDIUM 73 [-]
Epoch Orbit6409
Epoch Day195.7116203
Epoch Year2018
RAAN37.0599
Inclination86.441
Eccentricity0.000218
Argument of Perigee105.1249
Mean Anonmoly255.0196
Mean Motion14.49124836
Decay Rate8.9E-07
L11 25344U 98032C 18195.71162030 .00000089 00000-0 17932-4 0 9997
L22 25344 86.4410 37.0599 0002180 105.1249 255.0196 14.49124836 64098

Live tracking and technical data element details for IRIDIUM 73 [-] (NORAD 25344). IRIDIUM 73 [-] can be tracked NOW for your location showing map with azimuth and elevation plus other details from your city location.

Track the satellite on the map from your city or location and see movement details for azimuth, elevation, latitude, longitude, range, height, and movement on the map or in text.







IsCatalogInMostPopularTable: catalog: 25344, numindb: 45
Update: records affected: 1



GetName: 25344 IRIDIUM 73 [-]

Hit Count: updated at: Mon, 16 Jul 2018 14:46:15 GMT